• In Czech Republic
  • List of Countries
  • For 7 days
  • Water Temperature
  • Satellite Maps
  • Weather Map
  • Weather Widgets
  • user-avatar
    Login

    Hourly Weather Mazatecochco

    Today, 16 October, Tuesday

    Time Temperature Precipitation Wind Pressure Humidity
    00:00 +14°C° 0.1 mm 2 mps 575 mmHg 91%
    01:00 +14°C° 0.1 mm 2 mps 575 mmHg 90%
    02:00 +14°C° 0.1 mm 2 mps 575 mmHg 90%
    03:00 +14°C° 0 mm 2 mps 575 mmHg 90%
    04:00 +13°C° 0 mm 2 mps 575 mmHg 90%
    05:00 +13°C° 0 mm 2 mps 575 mmHg 91%
    06:00 +13°C° 0 mm 3 mps 576 mmHg 86%
    07:00 +16°C° 0 mm 3 mps 577 mmHg 81%
    08:00 +17°C° 0 mm 3 mps 578 mmHg 77%
    09:00 +18°C° 0.1 mm 3 mps 578 mmHg 72%
    10:00 +19°C° 0.1 mm 3 mps 578 mmHg 66%
    11:00 +20°C° 0.1 mm 4 mps 579 mmHg 61%
    12:00 +20°C° 0.2 mm 3 mps 578 mmHg 62%
    13:00 +20°C° 0.2 mm 3 mps 578 mmHg 62%
    14:00 +20°C° 0.2 mm 3 mps 577 mmHg 63%
    15:00 +19°C° 0.2 mm 3 mps 577 mmHg 68%
    16:00 +18°C° 0.2 mm 3 mps 576 mmHg 73%
    17:00 +16°C° 0.2 mm 3 mps 576 mmHg 78%
    18:00 +16°C° 0 mm 3 mps 576 mmHg 81%
    19:00 +14°C° 0 mm 3 mps 576 mmHg 84%
    20:00 +13°C° 0 mm 3 mps 576 mmHg 87%
    21:00 +13°C° 0 mm 3 mps 576 mmHg 87%
    22:00 +12°C° 0 mm 3 mps 576 mmHg 87%
    23:00 +13°C° 0 mm 2 mps 576 mmHg 87%

    Tomorrow, 17 October, Wednesday

    Time Temperature Precipitation Wind Pressure Humidity
    00:00 +13°C° 0 mm 2 mps 576 mmHg 88%
    01:00 +12°C° 0 mm 2 mps 576 mmHg 89%
    02:00 +12°C° 0 mm 2 mps 575 mmHg 89%
    03:00 +12°C° 0 mm 2 mps 575 mmHg 90%
    04:00 +12°C° 0 mm 2 mps 575 mmHg 90%
    05:00 +12°C° 0 mm 2 mps 575 mmHg 90%
    06:00 +13°C° 0 mm 2 mps 576 mmHg 85%
    07:00 +14°C° 0 mm 3 mps 577 mmHg 79%
    08:00 +16°C° 0 mm 3 mps 578 mmHg 74%
    09:00 +18°C° 0.2 mm 3 mps 578 mmHg 71%
    10:00 +19°C° 0.2 mm 3 mps 579 mmHg 69%
    11:00 +20°C° 0.2 mm 3 mps 579 mmHg 66%
    12:00 +18°C° 2.2 mm 4 mps 578 mmHg 72%
    13:00 +15°C° 2.2 mm 4 mps 576 mmHg 79%
    14:00 +14°C° 2.2 mm 4 mps 575 mmHg 85%
    15:00 +13°C° 0.9 mm 4 mps 575 mmHg 86%
    16:00 +13°C° 0.9 mm 4 mps 575 mmHg 86%
    17:00 +13°C° 0.9 mm 4 mps 576 mmHg 87%
    18:00 +13°C° 0.5 mm 4 mps 576 mmHg 87%
    19:00 +13°C° 0.5 mm 3 mps 576 mmHg 88%
    20:00 +12°C° 0.5 mm 3 mps 577 mmHg 89%
    21:00 +12°C° 0.3 mm 3 mps 577 mmHg 90%
    22:00 +12°C° 0.3 mm 3 mps 577 mmHg 90%
    23:00 +12°C° 0.3 mm 3 mps 577 mmHg 91%

    Day after tomorrow, 18 October, Thursday

    Time Temperature Precipitation Wind Pressure Humidity
    00:00 +12°C° 0 mm 3 mps 576 mmHg 91%
    01:00 +12°C° 0 mm 3 mps 576 mmHg 91%
    02:00 +12°C° 0 mm 3 mps 576 mmHg 91%
    03:00 +12°C° 0 mm 3 mps 576 mmHg 91%
    04:00 +11°C° 0 mm 3 mps 576 mmHg 91%
    05:00 +11°C° 0 mm 3 mps 575 mmHg 91%
    06:00 +13°C° 0 mm 3 mps 576 mmHg 86%
    07:00 +14°C° 0 mm 4 mps 578 mmHg 81%
    08:00 +15°C° 0 mm 4 mps 579 mmHg 76%
    09:00 +17°C° 0 mm 4 mps 579 mmHg 72%
    10:00 +18°C° 0 mm 4 mps 579 mmHg 68%
    11:00 +19°C° 0 mm 4 mps 579 mmHg 63%
    12:00 +19°C° 0.2 mm 4 mps 579 mmHg 66%
    13:00 +18°C° 0.2 mm 4 mps 578 mmHg 68%
    14:00 +18°C° 0.2 mm 4 mps 577 mmHg 70%
    15:00 +17°C° 0.1 mm 4 mps 577 mmHg 73%
    16:00 +15°C° 0.1 mm 4 mps 576 mmHg 76%
    17:00 +15°C° 0.1 mm 4 mps 576 mmHg 79%
    18:00 +14°C° 0 mm 3 mps 577 mmHg 81%
    19:00 +13°C° 0 mm 3 mps 577 mmHg 84%
    20:00 +13°C° 0 mm 3 mps 577 mmHg 86%
    21:00 +12°C° 0 mm 3 mps 577 mmHg 86%
    22:00 +12°C° 0 mm 3 mps 577 mmHg 86%
    23:00 +12°C° 0 mm 3 mps 577 mmHg 86%

    19 October, Friday

    Time Temperature Precipitation Wind Pressure Humidity
    00:00 +12°C° 0 mm 3 mps 577 mmHg 86%
    01:00 +12°C° 0 mm 3 mps 576 mmHg 86%
    02:00 +12°C° 0 mm 3 mps 576 mmHg 85%
    03:00 +12°C° 0.1 mm 3 mps 576 mmHg 86%
    04:00 +12°C° 0.1 mm 3 mps 576 mmHg 86%
    05:00 +12°C° 0.1 mm 3 mps 576 mmHg 86%
    06:00 +13°C° 0 mm 3 mps 577 mmHg 82%
    07:00 +14°C° 0 mm 3 mps 577 mmHg 79%
    08:00 +15°C° 0 mm 4 mps 578 mmHg 76%
    09:00 +17°C° 0.1 mm 4 mps 578 mmHg 74%
    10:00 +17°C° 0.1 mm 3 mps 578 mmHg 73%
    11:00 +18°C° 0.1 mm 3 mps 578 mmHg 71%
    12:00 +17°C° 0.2 mm 3 mps 577 mmHg 74%
    13:00 +17°C° 0.2 mm 3 mps 577 mmHg 77%
    14:00 +16°C° 0.2 mm 3 mps 576 mmHg 79%
    15:00 +16°C° 0.1 mm 3 mps 576 mmHg 80%
    16:00 +16°C° 0.1 mm 3 mps 576 mmHg 81%
    17:00 +14°C° 0.1 mm 3 mps 576 mmHg 82%
    18:00 +14°C° 0 mm 3 mps 576 mmHg 84%
    19:00 +13°C° 0 mm 3 mps 576 mmHg 85%
    20:00 +13°C° 0 mm 3 mps 577 mmHg 87%
    21:00 +12°C° 0 mm 3 mps 576 mmHg 88%
    22:00 +12°C° 0 mm 3 mps 576 mmHg 89%
    23:00 +12°C° 0 mm 2 mps 576 mmHg 89%

    20 October, Saturday

    Time Temperature Precipitation Wind Pressure Humidity
    00:00 +11°C° 0 mm 3 mps 575 mmHg 89%
    01:00 +11°C° 0 mm 3 mps 575 mmHg 89%
    02:00 +11°C° 0 mm 3 mps 575 mmHg 89%
    03:00 +11°C° 0 mm 3 mps 575 mmHg 89%
    04:00 +11°C° 0 mm 3 mps 575 mmHg 88%
    05:00 +11°C° 0 mm 3 mps 575 mmHg 87%
    06:00 +12°C° 0.1 mm 3 mps 576 mmHg 86%
    07:00 +13°C° 0.1 mm 3 mps 577 mmHg 84%
    08:00 +14°C° 0.1 mm 3 mps 577 mmHg 82%
    09:00 +14°C° 0.2 mm 3 mps 577 mmHg 81%
    10:00 +16°C° 0.2 mm 3 mps 577 mmHg 80%
    11:00 +15°C° 0.2 mm 4 mps 577 mmHg 78%
    12:00 +15°C° 0.2 mm 4 mps 577 mmHg 77%
    13:00 +15°C° 0.2 mm 4 mps 577 mmHg 76%
    14:00 +17°C° 0.2 mm 4 mps 576 mmHg 75%
    15:00 +16°C° 0.1 mm 3 mps 576 mmHg 77%
    16:00 +14°C° 0.1 mm 3 mps 576 mmHg 80%
    17:00 +14°C° 0.1 mm 3 mps 576 mmHg 83%
    18:00 +14°C° 0.1 mm 3 mps 577 mmHg 84%
    19:00 +13°C° 0.1 mm 3 mps 577 mmHg 85%
    20:00 +13°C° 0.1 mm 3 mps 577 mmHg 85%
    21:00 +13°C° 0.1 mm 3 mps 577 mmHg 86%
    22:00 +13°C° 0.1 mm 3 mps 577 mmHg 87%
    23:00 +13°C° 0.1 mm 3 mps 577 mmHg 87%

    21 October, Sunday

    Time Temperature Precipitation Wind Pressure Humidity
    00:00 +13°C° 0.1 mm 3 mps 576 mmHg 87%
    01:00 +13°C° 0.1 mm 3 mps 576 mmHg 87%
    02:00 +13°C° 0.1 mm 3 mps 576 mmHg 87%
    03:00 +13°C° 0.8 mm 3 mps 576 mmHg 88%
    04:00 +14°C° 0.8 mm 2 mps 576 mmHg 88%
    05:00 +14°C° 0.8 mm 2 mps 577 mmHg 89%
    06:00 +14°C° 0.4 mm 2 mps 577 mmHg 88%
    07:00 +14°C° 0.4 mm 3 mps 578 mmHg 87%
    08:00 +14°C° 0.4 mm 3 mps 578 mmHg 86%
    09:00 +16°C° 0.1 mm 3 mps 578 mmHg 83%
    10:00 +16°C° 0.1 mm 3 mps 578 mmHg 80%
    11:00 +17°C° 0.1 mm 4 mps 578 mmHg 77%
    12:00 +17°C° 0.4 mm 3 mps 578 mmHg 78%
    13:00 +16°C° 0.4 mm 3 mps 577 mmHg 79%
    14:00 +16°C° 0.4 mm 2 mps 577 mmHg 80%
    15:00 +16°C° 0.6 mm 2 mps 577 mmHg 83%
    16:00 +15°C° 0.6 mm 2 mps 577 mmHg 87%
    17:00 +14°C° 0.6 mm 1 mps 577 mmHg 90%
    18:00 +14°C° 0.6 mm 1 mps 577 mmHg 90%
    19:00 +14°C° 0.6 mm 1 mps 577 mmHg 91%
    20:00 +14°C° 0.6 mm 1 mps 577 mmHg 91%
    21:00 +14°C° 0.3 mm 2 mps 577 mmHg 91%
    22:00 +14°C° 0.3 mm 2 mps 577 mmHg 91%
    23:00 +13°C° 0.3 mm 2 mps 576 mmHg 91%
    Show more